Wetterdaten: aktuell Dienstag, 19.02.2019 03:45
Datum Zeit Temp. I. Temp 2m Temp 5cm Temp -10cm Feuchte I. Luftf 2m Luftdruck Regen Wind Richtung Richtung Sonnenschein ET UV Solar Taupunkt Windchill Windben Empfang
19.02.2019 03:45 22,1 C -2,8 C -5,0 C 1,7 C 56 % 92 % 1021,5 hPa 0,0 l/m 0,0 km/h (0 Bft) N 0 0 min 0,000 mm 0,0 UV-I 0 W/m -3,9 C -2,8 C 0,0 km/h (0 Bft) 95,65 %
19.02.2019 03:44 22,1 C -2,8 C -5,0 C 1,7 C 56 % 92 % 1021,4 hPa 0,0 l/m 0,0 km/h (0 Bft) O-NO 67 0 min 0,000 mm 0,0 UV-I 0 W/m -3,9 C -2,8 C 1,6 km/h (1 Bft) 91,30 %
19.02.2019 03:43 22,1 C -2,8 C -5,0 C 1,7 C 56 % 92 % 1021,4 hPa 0,0 l/m 1,6 km/h (1 Bft) O-NO 67 0 min 0,000 mm 0,0 UV-I 0 W/m -3,9 C -2,8 C 3,2 km/h (1 Bft) 95,65 %
19.02.2019 03:42 22,1 C -2,8 C -5,0 C 1,7 C 56 % 92 % 1021,4 hPa 0,0 l/m 0,0 km/h (0 Bft) O-NO 67 0 min 0,000 mm 0,0 UV-I 0 W/m -3,9 C -2,8 C 3,2 km/h (1 Bft) 91,30 %
19.02.2019 03:41 22,1 C -2,8 C -5,0 C 1,7 C 56 % 92 % 1021,4 hPa 0,0 l/m 0,0 km/h (0 Bft) N 0 0 min 0,000 mm 0,0 UV-I 0 W/m -3,9 C -2,8 C 0,0 km/h (0 Bft) 95,65 %
19.02.2019 03:40 22,1 C -2,8 C -5,0 C 1,7 C 56 % 92 % 1021,4 hPa 0,0 l/m 0,0 km/h (0 Bft) N 0 0 min 0,000 mm 0,0 UV-I 0 W/m -3,9 C -2,8 C 0,0 km/h (0 Bft) 91,30 %
19.02.2019 03:39 22,1 C -2,8 C -5,0 C 1,7 C 56 % 92 % 1021,4 hPa 0,0 l/m 0,0 km/h (0 Bft) N 0 0 min 0,000 mm 0,0 UV-I 0 W/m -3,9 C -2,8 C 0,0 km/h (0 Bft) 95,65 %
19.02.2019 03:38 22,1 C -2,8 C -5,0 C 1,7 C 56 % 92 % 1021,4 hPa 0,0 l/m 0,0 km/h (0 Bft) N 0 0 min 0,000 mm 0,0 UV-I 0 W/m -3,9 C -2,8 C 0,0 km/h (0 Bft) 91,30 %
19.02.2019 03:37 22,1 C -2,8 C -5,0 C 1,7 C 56 % 92 % 1021,4 hPa 0,0 l/m 0,0 km/h (0 Bft) N 0 0 min 0,000 mm 0,0 UV-I 0 W/m -3,9 C -2,8 C 0,0 km/h (0 Bft) 95,65 %
19.02.2019 03:36 22,1 C -2,8 C -5,0 C 1,7 C 56 % 92 % 1021,4 hPa 0,0 l/m 1,6 km/h (1 Bft) O-NO 67 0 min 0,000 mm 0,0 UV-I 0 W/m -3,9 C -2,8 C 1,6 km/h (1 Bft) 91,30 %
19.02.2019 03:35 22,1 C -2,8 C -5,0 C 1,7 C 56 % 92 % 1021,4 hPa 0,0 l/m 1,6 km/h (1 Bft) O-NO 67 0 min 0,000 mm 0,0 UV-I 0 W/m -3,9 C -2,8 C 3,2 km/h (1 Bft) 86,96 %
19.02.2019 03:34 22,1 C -2,8 C -5,0 C 1,7 C 56 % 92 % 1021,4 hPa 0,0 l/m 1,6 km/h (1 Bft) O-NO 67 0 min 0,000 mm 0,0 UV-I 0 W/m -3,9 C -2,8 C 3,2 km/h (1 Bft) 100,00 %
19.02.2019 03:33 22,1 C -2,8 C -5,0 C 1,7 C 56 % 92 % 1021,4 hPa 0,0 l/m 1,6 km/h (1 Bft) O-NO 67 0 min 0,000 mm 0,0 UV-I 0 W/m -3,9 C -2,8 C 3,2 km/h (1 Bft) 86,96 %
19.02.2019 03:32 22,1 C -2,8 C -5,0 C 1,7 C 56 % 92 % 1021,4 hPa 0,0 l/m 1,6 km/h (1 Bft) O-NO 67 0 min 0,000 mm 0,0 UV-I 0 W/m -3,9 C -2,8 C 3,2 km/h (1 Bft) 95,65 %
19.02.2019 03:31 22,1 C -2,8 C -5,0 C 1,7 C 56 % 92 % 1021,4 hPa 0,0 l/m 1,6 km/h (1 Bft) O-NO 67 0 min 0,000 mm 0,0 UV-I 0 W/m -3,9 C -2,8 C 3,2 km/h (1 Bft) 95,65 %
19.02.2019 03:30 22,1 C -2,8 C -5,0 C 1,7 C 56 % 92 % 1021,4 hPa 0,0 l/m 1,6 km/h (1 Bft) O-NO 67 0 min 0,000 mm 0,0 UV-I 0 W/m -3,9 C -2,8 C 3,2 km/h (1 Bft) 91,30 %
19.02.2019 03:29 22,1 C -2,8 C -5,0 C 1,7 C 56 % 92 % 1021,5 hPa 0,0 l/m 0,0 km/h (0 Bft) N 0 0 min 0,000 mm 0,0 UV-I 0 W/m -3,9 C -2,8 C 0,0 km/h (0 Bft) 86,96 %
19.02.2019 03:28 22,1 C -2,8 C -5,0 C 1,7 C 56 % 92 % 1021,5 hPa 0,0 l/m 0,0 km/h (0 Bft) O-NO 67 0 min 0,000 mm 0,0 UV-I 0 W/m -3,9 C -2,8 C 1,6 km/h (1 Bft) 95,65 %
19.02.2019 03:27 22,1 C -2,8 C -5,0 C 1,7 C 56 % 92 % 1021,5 hPa 0,0 l/m 0,0 km/h (0 Bft) N 0 0 min 0,000 mm 0,0 UV-I 0 W/m -3,9 C -2,8 C 0,0 km/h (0 Bft) 91,30 %
19.02.2019 03:26 22,1 C -2,8 C -5,0 C 1,7 C 56 % 92 % 1021,5 hPa 0,0 l/m 0,0 km/h (0 Bft) N 0 0 min 0,000 mm 0,0 UV-I 0 W/m -3,9 C -2,8 C 0,0 km/h (0 Bft) 95,65 %
19.02.2019 03:25 22,1 C -2,7 C -5,0 C 1,7 C 56 % 92 % 1021,5 hPa 0,0 l/m 0,0 km/h (0 Bft) N 0 0 min 0,000 mm 0,0 UV-I 0 W/m -3,8 C -2,7 C 0,0 km/h (0 Bft) 91,30 %
19.02.2019 03:24 22,1 C -2,7 C -5,0 C 1,7 C 56 % 92 % 1021,5 hPa 0,0 l/m 0,0 km/h (0 Bft) N 0 0 min 0,000 mm 0,0 UV-I 0 W/m -3,8 C -2,7 C 0,0 km/h (0 Bft) 86,96 %
19.02.2019 03:23 22,1 C -2,7 C -5,0 C 1,7 C 56 % 92 % 1021,5 hPa 0,0 l/m 0,0 km/h (0 Bft) N 0 0 min 0,000 mm 0,0 UV-I 0 W/m -3,8 C -2,7 C 0,0 km/h (0 Bft) 95,65 %
19.02.2019 03:22 22,1 C -2,7 C -5,0 C 1,7 C 56 % 92 % 1021,5 hPa 0,0 l/m 0,0 km/h (0 Bft) N 0 0 min 0,000 mm 0,0 UV-I 0 W/m -3,8 C -2,7 C 0,0 km/h (0 Bft) 100,00 %
19.02.2019 03:21 22,1 C -2,7 C -5,0 C 1,7 C 56 % 92 % 1021,5 hPa 0,0 l/m 0,0 km/h (0 Bft) N 0 0 min 0,000 mm 0,0 UV-I 0 W/m -3,8 C -2,7 C 0,0 km/h (0 Bft) 91,30 %
19.02.2019 03:20 22,1 C -2,7 C -5,0 C 1,7 C 56 % 92 % 1021,5 hPa 0,0 l/m 0,0 km/h (0 Bft) N 0 0 min 0,000 mm 0,0 UV-I 0 W/m -3,8 C -2,7 C 0,0 km/h (0 Bft) 91,30 %
19.02.2019 03:19 22,1 C -2,7 C -5,0 C 1,7 C 56 % 92 % 1021,5 hPa 0,0 l/m 0,0 km/h (0 Bft) N 0 0 min 0,000 mm 0,0 UV-I 0 W/m -3,8 C -2,7 C 0,0 km/h (0 Bft) 95,65 %
19.02.2019 03:18 22,1 C -2,7 C -5,0 C 1,7 C 56 % 92 % 1021,5 hPa 0,0 l/m 0,0 km/h (0 Bft) N 0 0 min 0,000 mm 0,0 UV-I 0 W/m -3,8 C -2,7 C 0,0 km/h (0 Bft) 95,65 %
19.02.2019 03:17 22,1 C -2,7 C -5,0 C 1,7 C 56 % 92 % 1021,5 hPa 0,0 l/m 0,0 km/h (0 Bft) N 0 0 min 0,000 mm 0,0 UV-I 0 W/m -3,8 C -2,7 C 0,0 km/h (0 Bft) 91,30 %
19.02.2019 03:16 22,1 C -2,7 C -5,0 C 1,7 C 57 % 92 % 1021,5 hPa 0,0 l/m 0,0 km/h (0 Bft) N 0 0 min 0,000 mm 0,0 UV-I 0 W/m -3,8 C -2,7 C 0,0 km/h (0 Bft) 95,65 %
19.02.2019 03:15 22,1 C -2,6 C -5,0 C 1,7 C 56 % 92 % 1021,5 hPa 0,0 l/m 0,0 km/h (0 Bft) N 0 0 min 0,000 mm 0,0 UV-I 0 W/m -3,7 C -2,6 C 0,0 km/h (0 Bft) 91,30 %
19.02.2019 03:14 22,1 C -2,6 C -5,0 C 1,7 C 56 % 92 % 1021,6 hPa 0,0 l/m 0,0 km/h (0 Bft) N 0 0 min 0,000 mm 0,0 UV-I 0 W/m -3,7 C -2,6 C 0,0 km/h (0 Bft) 86,96 %
19.02.2019 03:13 22,1 C -2,6 C -5,0 C 1,7 C 56 % 92 % 1021,6 hPa 0,0 l/m 0,0 km/h (0 Bft) N 0 0 min 0,000 mm 0,0 UV-I 0 W/m -3,7 C -2,6 C 0,0 km/h (0 Bft) 100,00 %
19.02.2019 03:12 22,1 C -2,6 C -5,0 C 1,7 C 56 % 92 % 1021,6 hPa 0,0 l/m 0,0 km/h (0 Bft) O-NO 67 0 min 0,000 mm 0,0 UV-I 0 W/m -3,7 C -2,6 C 1,6 km/h (1 Bft) 86,96 %
19.02.2019 03:11 22,1 C -2,6 C -5,0 C 1,7 C 56 % 92 % 1021,6 hPa 0,0 l/m 1,6 km/h (1 Bft) O-NO 67 0 min 0,000 mm 0,0 UV-I 0 W/m -3,7 C -2,6 C 3,2 km/h (1 Bft) 91,30 %
19.02.2019 03:10 22,1 C -2,6 C -5,0 C 1,7 C 56 % 92 % 1021,6 hPa 0,0 l/m 3,2 km/h (1 Bft) O-NO 67 0 min 0,000 mm 0,0 UV-I 0 W/m -3,7 C -2,6 C 3,2 km/h (1 Bft) 91,30 %
19.02.2019 03:09 22,1 C -2,6 C -5,0 C 1,7 C 56 % 92 % 1021,6 hPa 0,0 l/m 3,2 km/h (1 Bft) O-NO 67 0 min 0,000 mm 0,0 UV-I 0 W/m -3,7 C -2,6 C 4,8 km/h (1 Bft) 91,30 %
19.02.2019 03:08 22,1 C -2,6 C -5,0 C 1,7 C 56 % 92 % 1021,6 hPa 0,0 l/m 3,2 km/h (1 Bft) O-NO 67 0 min 0,000 mm 0,0 UV-I 0 W/m -3,7 C -2,6 C 4,8 km/h (1 Bft) 95,65 %
19.02.2019 03:07 22,1 C -2,6 C -5,0 C 1,7 C 56 % 92 % 1021,6 hPa 0,0 l/m 1,6 km/h (1 Bft) O-NO 67 0 min 0,000 mm 0,0 UV-I 0 W/m -3,7 C -2,6 C 3,2 km/h (1 Bft) 91,30 %
19.02.2019 03:06 22,1 C -2,6 C -5,0 C 1,7 C 56 % 92 % 1021,6 hPa 0,0 l/m 1,6 km/h (1 Bft) O-NO 67 0 min 0,000 mm 0,0 UV-I 0 W/m -3,7 C -2,6 C 3,2 km/h (1 Bft) 86,96 %
19.02.2019 03:05 22,1 C -2,6 C -5,0 C 1,7 C 56 % 92 % 1021,6 hPa 0,0 l/m 3,2 km/h (1 Bft) O-NO 67 0 min 0,000 mm 0,0 UV-I 0 W/m -3,7 C -2,6 C 4,8 km/h (1 Bft) 91,30 %
19.02.2019 03:04 22,1 C -2,6 C -5,0 C 1,7 C 56 % 92 % 1021,6 hPa 0,0 l/m 3,2 km/h (1 Bft) O-NO 67 0 min 0,000 mm 0,0 UV-I 0 W/m -3,7 C -2,6 C 4,8 km/h (1 Bft) 100,00 %
19.02.2019 03:03 22,1 C -2,6 C -5,0 C 1,7 C 56 % 92 % 1021,6 hPa 0,0 l/m 3,2 km/h (1 Bft) O-NO 67 0 min 0,000 mm 0,0 UV-I 0 W/m -3,7 C -2,6 C 4,8 km/h (1 Bft) 91,30 %
19.02.2019 03:02 22,1 C -2,6 C -5,0 C 1,7 C 56 % 92 % 1021,6 hPa 0,0 l/m 3,2 km/h (1 Bft) O-NO 67 0 min 0,000 mm 0,0 UV-I 0 W/m -3,7 C -2,6 C 4,8 km/h (1 Bft) 91,30 %
19.02.2019 03:01 22,1 C -2,6 C -5,0 C 1,7 C 56 % 92 % 1021,6 hPa 0,0 l/m 3,2 km/h (1 Bft) O-NO 67 0 min 0,000 mm 0,0 UV-I 0 W/m -3,7 C -2,6 C 3,2 km/h (1 Bft) 86,96 %
19.02.2019 03:00 22,1 C -2,6 C -5,0 C 1,7 C 56 % 92 % 1021,6 hPa 0,0 l/m 0,0 km/h (0 Bft) O-NO 67 0 min 0,000 mm 0,0 UV-I 0 W/m -3,7 C -2,6 C 3,2 km/h (1 Bft) 95,65 %
19.02.2019 02:59 22,1 C -2,5 C -5,0 C 1,7 C 56 % 92 % 1021,5 hPa 0,0 l/m 0,0 km/h (0 Bft) O-NO 67 0 min 0,000 mm 0,0 UV-I 0 W/m -3,6 C -2,5 C 1,6 km/h (1 Bft) 95,65 %
19.02.2019 02:58 22,1 C -2,5 C -5,6 C 1,7 C 56 % 92 % 1021,5 hPa 0,0 l/m 0,0 km/h (0 Bft) N 0 0 min 0,000 mm 0,0 UV-I 0 W/m -3,6 C -2,5 C 0,0 km/h (0 Bft) 91,30 %
19.02.2019 02:57 22,1 C -2,5 C -5,6 C 1,7 C 56 % 92 % 1021,5 hPa 0,0 l/m 0,0 km/h (0 Bft) O-NO 67 0 min 0,000 mm 0,0 UV-I 0 W/m -3,6 C -2,5 C 3,2 km/h (1 Bft) 95,65 %
19.02.2019 02:56 22,1 C -2,5 C -5,6 C 1,7 C 56 % 92 % 1021,5 hPa 0,0 l/m 0,0 km/h (0 Bft) O-NO 67 0 min 0,000 mm 0,0 UV-I 0 W/m -3,6 C -2,5 C 1,6 km/h (1 Bft) 95,65 %
19.02.2019 02:55 22,1 C -2,5 C -5,6 C 1,7 C 56 % 92 % 1021,5 hPa 0,0 l/m 0,0 km/h (0 Bft) O-NO 67 0 min 0,000 mm 0,0 UV-I 0 W/m -3,6 C -2,5 C 3,2 km/h (1 Bft) 95,65 %
19.02.2019 02:54 22,1 C -2,4 C -5,6 C 1,7 C 56 % 92 % 1021,5 hPa 0,0 l/m 1,6 km/h (1 Bft) O-NO 67 0 min 0,000 mm 0,0 UV-I 0 W/m -3,5 C -2,4 C 3,2 km/h (1 Bft) 100,00 %
19.02.2019 02:53 22,1 C -2,4 C -5,6 C 1,7 C 56 % 92 % 1021,5 hPa 0,0 l/m 0,0 km/h (0 Bft) N 0 0 min 0,000 mm 0,0 UV-I 0 W/m -3,5 C -2,4 C 0,0 km/h (0 Bft) 95,65 %
19.02.2019 02:52 22,1 C -2,4 C -5,6 C 1,7 C 56 % 92 % 1021,5 hPa 0,0 l/m 0,0 km/h (0 Bft) N 0 0 min 0,000 mm 0,0 UV-I 0 W/m -3,5 C -2,4 C 0,0 km/h (0 Bft) 91,30 %
19.02.2019 02:51 22,1 C -2,4 C -5,6 C 1,7 C 56 % 92 % 1021,5 hPa 0,0 l/m 0,0 km/h (0 Bft) N 0 0 min 0,000 mm 0,0 UV-I 0 W/m -3,5 C -2,4 C 0,0 km/h (0 Bft) 100,00 %
19.02.2019 02:50 22,1 C -2,4 C -5,6 C 1,7 C 56 % 92 % 1021,5 hPa 0,0 l/m 0,0 km/h (0 Bft) N 0 0 min 0,000 mm 0,0 UV-I 0 W/m -3,5 C -2,4 C 0,0 km/h (0 Bft) 95,65 %
19.02.2019 02:49 22,1 C -2,4 C -5,6 C 1,7 C 56 % 92 % 1021,5 hPa 0,0 l/m 0,0 km/h (0 Bft) N 0 0 min 0,000 mm 0,0 UV-I 0 W/m -3,5 C -2,4 C 0,0 km/h (0 Bft) 95,65 %
19.02.2019 02:48 22,1 C -2,4 C -5,6 C 1,7 C 56 % 92 % 1021,5 hPa 0,0 l/m 0,0 km/h (0 Bft) N 0 0 min 0,000 mm 0,0 UV-I 0 W/m -3,5 C -2,4 C 0,0 km/h (0 Bft) 95,65 %
19.02.2019 02:47 22,1 C -2,4 C -5,6 C 1,7 C 56 % 92 % 1021,5 hPa 0,0 l/m 0,0 km/h (0 Bft) N 0 0 min 0,000 mm 0,0 UV-I 0 W/m -3,5 C -2,4 C 0,0 km/h (0 Bft) 95,65 %
19.02.2019 02:46 22,1 C -2,3 C -5,6 C 1,7 C 56 % 92 % 1021,5 hPa 0,0 l/m 0,0 km/h (0 Bft) N 0 0 min 0,000 mm 0,0 UV-I 0 W/m -3,4 C -2,3 C 0,0 km/h (0 Bft) 91,30 %
19.02.2019 02:45 22,1 C -2,3 C -5,6 C 1,7 C 56 % 92 % 1021,5 hPa 0,0 l/m 0,0 km/h (0 Bft) N 0 0 min 0,000 mm 0,0 UV-I 0 W/m -3,4 C -2,3 C 0,0 km/h (0 Bft) 100,00 %
19.02.2019 02:44 22,1 C -2,3 C -5,6 C 1,7 C 56 % 92 % 1021,5 hPa 0,0 l/m 0,0 km/h (0 Bft) O-NO 67 0 min 0,000 mm 0,0 UV-I 0 W/m -3,4 C -2,3 C 1,6 km/h (1 Bft) 95,65 %
19.02.2019 02:43 22,1 C -2,3 C -5,6 C 1,7 C 56 % 92 % 1021,5 hPa 0,0 l/m 0,0 km/h (0 Bft) N 0 0 min 0,000 mm 0,0 UV-I 0 W/m -3,4 C -2,3 C 0,0 km/h (0 Bft) 95,65 %
19.02.2019 02:42 22,1 C -2,3 C -5,6 C 1,7 C 56 % 92 % 1021,5 hPa 0,0 l/m 0,0 km/h (0 Bft) N 0 0 min 0,000 mm 0,0 UV-I 0 W/m -3,4 C -2,3 C 0,0 km/h (0 Bft) 95,65 %
19.02.2019 02:41 22,1 C -2,3 C -5,6 C 1,7 C 56 % 92 % 1021,5 hPa 0,0 l/m 0,0 km/h (0 Bft) O-NO 67 0 min 0,000 mm 0,0 UV-I 0 W/m -3,4 C -2,3 C 1,6 km/h (1 Bft) 95,65 %
19.02.2019 02:40 22,1 C -2,3 C -5,6 C 1,7 C 56 % 92 % 1021,5 hPa 0,0 l/m 0,0 km/h (0 Bft) N 0 0 min 0,000 mm 0,0 UV-I 0 W/m -3,4 C -2,3 C 0,0 km/h (0 Bft) 95,65 %
19.02.2019 02:39 22,1 C -2,3 C -5,6 C 1,7 C 56 % 92 % 1021,5 hPa 0,0 l/m 0,0 km/h (0 Bft) N 0 0 min 0,000 mm 0,0 UV-I 0 W/m -3,4 C -2,3 C 0,0 km/h (0 Bft) 95,65 %
19.02.2019 02:38 22,1 C -2,3 C -5,6 C 1,7 C 56 % 92 % 1021,5 hPa 0,0 l/m 1,6 km/h (1 Bft) O-NO 67 0 min 0,000 mm 0,0 UV-I 0 W/m -3,4 C -2,3 C 3,2 km/h (1 Bft) 95,65 %
19.02.2019 02:37 22,1 C -2,3 C -5,6 C 1,7 C 56 % 92 % 1021,5 hPa 0,0 l/m 0,0 km/h (0 Bft) O-NO 67 0 min 0,000 mm 0,0 UV-I 0 W/m -3,4 C -2,3 C 3,2 km/h (1 Bft) 95,65 %
19.02.2019 02:36 22,1 C -2,3 C -5,0 C 1,7 C 56 % 92 % 1021,5 hPa 0,0 l/m 0,0 km/h (0 Bft) N 0 0 min 0,000 mm 0,0 UV-I 0 W/m -3,4 C -2,3 C 0,0 km/h (0 Bft) 95,65 %
19.02.2019 02:35 22,1 C -2,3 C -5,0 C 1,7 C 56 % 92 % 1021,5 hPa 0,0 l/m 0,0 km/h (0 Bft) N 0 0 min 0,000 mm 0,0 UV-I 0 W/m -3,4 C -2,3 C 0,0 km/h (0 Bft) 86,96 %
19.02.2019 02:34 22,1 C -2,3 C -5,0 C 1,7 C 56 % 92 % 1021,5 hPa 0,0 l/m 0,0 km/h (0 Bft) N 0 0 min 0,000 mm 0,0 UV-I 0 W/m -3,4 C -2,3 C 0,0 km/h (0 Bft) 82,61 %
19.02.2019 02:33 22,1 C -2,2 C -5,0 C 1,7 C 56 % 92 % 1021,5 hPa 0,0 l/m 0,0 km/h (0 Bft) N 0 0 min 0,000 mm 0,0 UV-I 0 W/m -3,3 C -2,2 C 0,0 km/h (0 Bft) 95,65 %
19.02.2019 02:32 22,1 C -2,2 C -5,0 C 1,7 C 56 % 92 % 1021,5 hPa 0,0 l/m 0,0 km/h (0 Bft) N 0 0 min 0,000 mm 0,0 UV-I 0 W/m -3,3 C -2,2 C 0,0 km/h (0 Bft) 95,65 %
19.02.2019 02:31 22,1 C -2,2 C -5,0 C 1,7 C 56 % 92 % 1021,5 hPa 0,0 l/m 0,0 km/h (0 Bft) O-NO 67 0 min 0,000 mm 0,0 UV-I 0 W/m -3,3 C -2,2 C 1,6 km/h (1 Bft) 86,96 %
19.02.2019 02:30 22,1 C -2,2 C -5,0 C 1,7 C 56 % 92 % 1021,5 hPa 0,0 l/m 0,0 km/h (0 Bft) N 0 0 min 0,000 mm 0,0 UV-I 0 W/m -3,3 C -2,2 C 0,0 km/h (0 Bft) 100,00 %
19.02.2019 02:29 22,1 C -2,2 C -5,0 C 1,7 C 56 % 92 % 1021,6 hPa 0,0 l/m 0,0 km/h (0 Bft) N 0 0 min 0,000 mm 0,0 UV-I 0 W/m -3,3 C -2,2 C 0,0 km/h (0 Bft) 91,30 %
19.02.2019 02:28 22,1 C -2,2 C -5,0 C 1,7 C 56 % 92 % 1021,6 hPa 0,0 l/m 0,0 km/h (0 Bft) N 0 0 min 0,000 mm 0,0 UV-I 0 W/m -3,3 C -2,2 C 0,0 km/h (0 Bft) 95,65 %
19.02.2019 02:27 22,1 C -2,2 C -5,0 C 1,7 C 56 % 92 % 1021,6 hPa 0,0 l/m 0,0 km/h (0 Bft) N 0 0 min 0,000 mm 0,0 UV-I 0 W/m -3,3 C -2,2 C 0,0 km/h (0 Bft) 100,00 %
19.02.2019 02:26 22,1 C -2,2 C -5,0 C 1,7 C 56 % 92 % 1021,6 hPa 0,0 l/m 0,0 km/h (0 Bft) N 0 0 min 0,000 mm 0,0 UV-I 0 W/m -3,3 C -2,2 C 0,0 km/h (0 Bft) 95,65 %
19.02.2019 02:25 22,1 C -2,2 C -5,0 C 1,7 C 56 % 92 % 1021,6 hPa 0,0 l/m 0,0 km/h (0 Bft) N 0 0 min 0,000 mm 0,0 UV-I 0 W/m -3,3 C -2,2 C 0,0 km/h (0 Bft) 95,65 %
19.02.2019 02:24 22,1 C -2,2 C -5,0 C 1,7 C 56 % 92 % 1021,6 hPa 0,0 l/m 0,0 km/h (0 Bft) N 0 0 min 0,000 mm 0,0 UV-I 0 W/m -3,3 C -2,2 C 0,0 km/h (0 Bft) 91,30 %
19.02.2019 02:23 22,1 C -2,2 C -5,0 C 1,7 C 56 % 92 % 1021,6 hPa 0,0 l/m 0,0 km/h (0 Bft) N 0 0 min 0,000 mm 0,0 UV-I 0 W/m -3,3 C -2,2 C 0,0 km/h (0 Bft) 91,30 %
19.02.2019 02:22 22,1 C -2,1 C -5,0 C 1,7 C 56 % 92 % 1021,6 hPa 0,0 l/m 0,0 km/h (0 Bft) N 0 0 min 0,000 mm 0,0 UV-I 0 W/m -3,2 C -2,1 C 0,0 km/h (0 Bft) 91,30 %
19.02.2019 02:21 22,1 C -2,1 C -5,0 C 1,7 C 56 % 92 % 1021,6 hPa 0,0 l/m 0,0 km/h (0 Bft) N 0 0 min 0,000 mm 0,0 UV-I 0 W/m -3,2 C -2,1 C 0,0 km/h (0 Bft) 100,00 %
19.02.2019 02:20 22,1 C -2,1 C -5,0 C 1,7 C 56 % 92 % 1021,6 hPa 0,0 l/m 0,0 km/h (0 Bft) N 0 0 min 0,000 mm 0,0 UV-I 0 W/m -3,2 C -2,1 C 0,0 km/h (0 Bft) 95,65 %
19.02.2019 02:19 22,1 C -2,1 C -5,0 C 1,7 C 56 % 92 % 1021,6 hPa 0,0 l/m 0,0 km/h (0 Bft) N 0 0 min 0,000 mm 0,0 UV-I 0 W/m -3,2 C -2,1 C 0,0 km/h (0 Bft) 95,65 %
19.02.2019 02:18 22,1 C -2,1 C -5,0 C 1,7 C 56 % 92 % 1021,6 hPa 0,0 l/m 0,0 km/h (0 Bft) N 0 0 min 0,000 mm 0,0 UV-I 0 W/m -3,2 C -2,1 C 0,0 km/h (0 Bft) 95,65 %
19.02.2019 02:17 22,1 C -2,1 C -4,4 C 1,7 C 56 % 93 % 1021,6 hPa 0,0 l/m 0,0 km/h (0 Bft) O-NO 67 0 min 0,000 mm 0,0 UV-I 0 W/m -3,1 C -2,1 C 1,6 km/h (1 Bft) 95,65 %
19.02.2019 02:16 22,1 C -2,1 C -4,4 C 1,7 C 56 % 93 % 1021,6 hPa 0,0 l/m 0,0 km/h (0 Bft) N 0 0 min 0,000 mm 0,0 UV-I 0 W/m -3,1 C -2,1 C 0,0 km/h (0 Bft) 95,65 %
19.02.2019 02:15 22,1 C -2,1 C -4,4 C 1,7 C 57 % 93 % 1021,6 hPa 0,0 l/m 0,0 km/h (0 Bft) N 0 0 min 0,000 mm 0,0 UV-I 0 W/m -3,1 C -2,1 C 0,0 km/h (0 Bft) 91,30 %
19.02.2019 02:14 22,1 C -2,1 C -4,4 C 1,7 C 56 % 93 % 1021,6 hPa 0,0 l/m 0,0 km/h (0 Bft) N 0 0 min 0,000 mm 0,0 UV-I 0 W/m -3,1 C -2,1 C 0,0 km/h (0 Bft) 95,65 %
19.02.2019 02:13 22,2 C -2,1 C -4,4 C 1,7 C 56 % 93 % 1021,6 hPa 0,0 l/m 0,0 km/h (0 Bft) N 0 0 min 0,000 mm 0,0 UV-I 0 W/m -3,1 C -2,1 C 0,0 km/h (0 Bft) 91,30 %
19.02.2019 02:12 22,2 C -2,1 C -4,4 C 1,7 C 56 % 93 % 1021,6 hPa 0,0 l/m 1,6 km/h (1 Bft) O-NO 67 0 min 0,000 mm 0,0 UV-I 0 W/m -3,1 C -2,1 C 3,2 km/h (1 Bft) 91,30 %
19.02.2019 02:11 22,2 C -2,1 C -4,4 C 1,7 C 56 % 93 % 1021,6 hPa 0,0 l/m 3,2 km/h (1 Bft) O-NO 67 0 min 0,000 mm 0,0 UV-I 0 W/m -3,1 C -2,1 C 3,2 km/h (1 Bft) 91,30 %
19.02.2019 02:10 22,2 C -2,1 C -4,4 C 1,7 C 56 % 93 % 1021,6 hPa 0,0 l/m 3,2 km/h (1 Bft) O-NO 67 0 min 0,000 mm 0,0 UV-I 0 W/m -3,1 C -2,1 C 3,2 km/h (1 Bft) 95,65 %
19.02.2019 02:09 22,2 C -2,1 C -4,4 C 1,7 C 56 % 93 % 1021,6 hPa 0,0 l/m 3,2 km/h (1 Bft) O-NO 67 0 min 0,000 mm 0,0 UV-I 0 W/m -3,1 C -2,1 C 3,2 km/h (1 Bft) 86,96 %
19.02.2019 02:08 22,2 C -2,1 C -4,4 C 1,7 C 56 % 93 % 1021,6 hPa 0,0 l/m 1,6 km/h (1 Bft) O-NO 67 0 min 0,000 mm 0,0 UV-I 0 W/m -3,1 C -2,1 C 3,2 km/h (1 Bft) 100,00 %
19.02.2019 02:07 22,2 C -2,1 C -3,9 C 1,7 C 56 % 93 % 1021,6 hPa 0,0 l/m 3,2 km/h (1 Bft) O-NO 67 0 min 0,000 mm 0,0 UV-I 0 W/m -3,1 C -2,1 C 3,2 km/h (1 Bft) 82,61 %
19.02.2019 02:06 22,2 C -2,1 C -3,9 C 1,7 C 56 % 93 % 1021,6 hPa 0,0 l/m 3,2 km/h (1 Bft) O-NO 67 0 min 0,000 mm 0,0 UV-I 0 W/m -3,1 C -2,1 C 4,8 km/h (1 Bft) 86,96 %
19.02.2019 02:05 22,2 C -2,1 C -3,9 C 1,7 C 56 % 93 % 1021,6 hPa 0,0 l/m 3,2 km/h (1 Bft) O-NO 67 0 min 0,000 mm 0,0 UV-I 0 W/m -3,1 C -2,1 C 4,8 km/h (1 Bft) 100,00 %
19.02.2019 02:04 22,2 C -2,1 C -3,9 C 1,7 C 56 % 93 % 1021,6 hPa 0,0 l/m 3,2 km/h (1 Bft) O-NO 67 0 min 0,000 mm 0,0 UV-I 0 W/m -3,1 C -2,1 C 4,8 km/h (1 Bft) 91,30 %
19.02.2019 02:03 22,2 C -2,1 C -3,9 C 1,7 C 56 % 93 % 1021,6 hPa 0,0 l/m 3,2 km/h (1 Bft) O-NO 67 0 min 0,000 mm 0,0 UV-I 0 W/m -3,1 C -2,1 C 4,8 km/h (1 Bft) 91,30 %
19.02.2019 02:02 22,2 C -2,1 C -3,9 C 1,7 C 56 % 93 % 1021,6 hPa 0,0 l/m 3,2 km/h (1 Bft) O-NO 67 0 min 0,000 mm 0,0 UV-I 0 W/m -3,1 C -2,1 C 4,8 km/h (1 Bft) 86,96 %
19.02.2019 02:01 22,2 C -2,1 C -3,9 C 1,7 C 56 % 93 % 1021,6 hPa 0,0 l/m 3,2 km/h (1 Bft) O-NO 67 0 min 0,000 mm 0,0 UV-I 0 W/m -3,1 C -2,1 C 6,4 km/h (2 Bft) 91,30 %
19.02.2019 02:00 22,2 C -2,1 C -3,9 C 1,7 C 56 % 93 % 1021,6 hPa 0,0 l/m 3,2 km/h (1 Bft) O-NO 67 0 min 0,000 mm 0,0 UV-I 0 W/m -3,1 C -2,1 C 4,8 km/h (1 Bft) 86,96 %
19.02.2019 01:59 22,2 C -2,1 C -3,9 C 1,7 C 56 % 93 % 1021,5 hPa 0,0 l/m 3,2 km/h (1 Bft) O-NO 67 0 min 0,000 mm 0,0 UV-I 0 W/m -3,1 C -2,1 C 4,8 km/h (1 Bft) 86,96 %
19.02.2019 01:58 22,2 C -2,1 C -4,4 C 1,7 C 56 % 93 % 1021,5 hPa 0,0 l/m 3,2 km/h (1 Bft) O-NO 67 0 min 0,000 mm 0,0 UV-I 0 W/m -3,1 C -2,1 C 4,8 km/h (1 Bft) 86,96 %
19.02.2019 01:57 22,2 C -2,1 C -4,4 C 1,7 C 56 % 93 % 1021,5 hPa 0,0 l/m 3,2 km/h (1 Bft) O-NO 67 0 min 0,000 mm 0,0 UV-I 0 W/m -3,1 C -2,1 C 4,8 km/h (1 Bft) 82,61 %
19.02.2019 01:56 22,2 C -2,1 C -4,4 C 1,7 C 56 % 93 % 1021,5 hPa 0,0 l/m 1,6 km/h (1 Bft) O-NO 67 0 min 0,000 mm 0,0 UV-I 0 W/m -3,1 C -2,1 C 4,8 km/h (1 Bft) 95,65 %
19.02.2019 01:55 22,2 C -2,1 C -4,4 C 1,7 C 56 % 93 % 1021,5 hPa 0,0 l/m 4,8 km/h (1 Bft) O-NO 67 0 min 0,000 mm 0,0 UV-I 0 W/m -3,1 C -2,1 C 4,8 km/h (1 Bft) 91,30 %
19.02.2019 01:54 22,2 C -2,1 C -4,4 C 1,7 C 56 % 93 % 1021,5 hPa 0,0 l/m 3,2 km/h (1 Bft) O-NO 67 0 min 0,000 mm 0,0 UV-I 0 W/m -3,1 C -2,1 C 4,8 km/h (1 Bft) 95,65 %
19.02.2019 01:53 22,2 C -2,1 C -4,4 C 1,7 C 56 % 93 % 1021,5 hPa 0,0 l/m 3,2 km/h (1 Bft) O-NO 67 0 min 0,000 mm 0,0 UV-I 0 W/m -3,1 C -2,1 C 4,8 km/h (1 Bft) 91,30 %
19.02.2019 01:52 22,2 C -2,1 C -4,4 C 1,7 C 56 % 93 % 1021,5 hPa 0,0 l/m 3,2 km/h (1 Bft) O-NO 67 0 min 0,000 mm 0,0 UV-I 0 W/m -3,1 C -2,1 C 4,8 km/h (1 Bft) 95,65 %
19.02.2019 01:51 22,2 C -2,1 C -4,4 C 1,7 C 56 % 93 % 1021,5 hPa 0,0 l/m 3,2 km/h (1 Bft) O-NO 67 0 min 0,000 mm 0,0 UV-I 0 W/m -3,1 C -2,1 C 4,8 km/h (1 Bft) 82,61 %
19.02.2019 01:50 22,2 C -2,1 C -4,4 C 1,7 C 56 % 93 % 1021,5 hPa 0,0 l/m 3,2 km/h (1 Bft) O-NO 67 0 min 0,000 mm 0,0 UV-I 0 W/m -3,1 C -2,1 C 4,8 km/h (1 Bft) 100,00 %
19.02.2019 01:49 22,2 C -2,1 C -4,4 C 1,7 C 56 % 93 % 1021,5 hPa 0,0 l/m 4,8 km/h (1 Bft) O-NO 67 0 min 0,000 mm 0,0 UV-I 0 W/m -3,1 C -2,1 C 6,4 km/h (2 Bft) 82,61 %
19.02.2019 01:48 22,2 C -2,1 C -4,4 C 1,7 C 56 % 92 % 1021,5 hPa 0,0 l/m 3,2 km/h (1 Bft) O-NO 67 0 min 0,000 mm 0,0 UV-I 0 W/m -3,2 C -2,1 C 6,4 km/h (2 Bft) 95,65 %
19.02.2019 01:47 22,2 C -2,1 C -4,4 C 1,7 C 56 % 92 % 1021,5 hPa 0,0 l/m 3,2 km/h (1 Bft) O-NO 67 0 min 0,000 mm 0,0 UV-I 0 W/m -3,2 C -2,1 C 4,8 km/h (1 Bft) 91,30 %
19.02.2019 01:46 22,2 C -2,1 C -4,4 C 1,7 C 56 % 92 % 1021,5 hPa 0,0 l/m 3,2 km/h (1 Bft) O-NO 67 0 min 0,000 mm 0,0 UV-I 0 W/m -3,2 C -2,1 C 4,8 km/h (1 Bft) 91,30 %
19.02.2019 01:45 22,2 C -2,1 C -4,4 C 1,7 C 56 % 92 % 1021,5 hPa 0,0 l/m 3,2 km/h (1 Bft) O-NO 67 0 min 0,000 mm 0,0 UV-I 0 W/m -3,2 C -2,1 C 4,8 km/h (1 Bft) 91,30 %
19.02.2019 01:44 22,2 C -2,1 C -4,4 C 1,7 C 56 % 92 % 1021,2 hPa 0,0 l/m 3,2 km/h (1 Bft) O-NO 67 0 min 0,000 mm 0,0 UV-I 0 W/m -3,2 C -2,1 C 4,8 km/h (1 Bft) 100,00 %
19.02.2019 01:43 22,2 C -2,1 C -4,4 C 1,7 C 56 % 92 % 1021,2 hPa 0,0 l/m 3,2 km/h (1 Bft) O-NO 67 0 min 0,000 mm 0,0 UV-I 0 W/m -3,2 C -2,1 C 4,8 km/h (1 Bft) 86,96 %
19.02.2019 01:42 22,2 C -2,1 C -4,4 C 1,7 C 56 % 92 % 1021,2 hPa 0,0 l/m 4,8 km/h (1 Bft) O-NO 67 0 min 0,000 mm 0,0 UV-I 0 W/m -3,2 C -2,1 C 6,4 km/h (2 Bft) 91,30 %
19.02.2019 01:41 22,2 C -2,1 C -4,4 C 1,7 C 56 % 92 % 1021,2 hPa 0,0 l/m 4,8 km/h (1 Bft) O-NO 67 0 min 0,000 mm 0,0 UV-I 0 W/m -3,2 C -2,1 C 6,4 km/h (2 Bft) 100,00 %
19.02.2019 01:40 22,2 C -2,1 C -4,4 C 1,7 C 56 % 92 % 1021,2 hPa 0,0 l/m 4,8 km/h (1 Bft) O-NO 67 0 min 0,000 mm 0,0 UV-I 0 W/m -3,2 C -2,1 C 6,4 km/h (2 Bft) 95,65 %
19.02.2019 01:39 22,2 C -2,1 C -5,0 C 1,7 C 56 % 92 % 1021,2 hPa 0,0 l/m 3,2 km/h (1 Bft) O-NO 67 0 min 0,000 mm 0,0 UV-I 0 W/m -3,2 C -2,1 C 4,8 km/h (1 Bft) 95,65 %
19.02.2019 01:38 22,2 C -2,1 C -5,0 C 1,7 C 57 % 92 % 1021,2 hPa 0,0 l/m 3,2 km/h (1 Bft) O-NO 67 0 min 0,000 mm 0,0 UV-I 0 W/m -3,2 C -2,1 C 6,4 km/h (2 Bft) 91,30 %
19.02.2019 01:37 22,2 C -2,1 C -5,0 C 1,7 C 56 % 92 % 1021,2 hPa 0,0 l/m 3,2 km/h (1 Bft) O-NO 67 0 min 0,000 mm 0,0 UV-I 0 W/m -3,2 C -2,1 C 6,4 km/h (2 Bft) 95,65 %
19.02.2019 01:36 22,2 C -2,1 C -5,0 C 1,7 C 56 % 92 % 1021,2 hPa 0,0 l/m 4,8 km/h (1 Bft) O-NO 67 0 min 0,000 mm 0,0 UV-I 0 W/m -3,2 C -2,1 C 4,8 km/h (1 Bft) 91,30 %
19.02.2019 01:35 22,2 C -2,1 C -5,0 C 1,7 C 56 % 92 % 1021,2 hPa 0,0 l/m 3,2 km/h (1 Bft) O-NO 67 0 min 0,000 mm 0,0 UV-I 0 W/m -3,2 C -2,1 C 4,8 km/h (1 Bft) 95,65 %
19.02.2019 01:34 22,2 C -2,1 C -5,0 C 1,7 C 56 % 92 % 1021,2 hPa 0,0 l/m 0,0 km/h (0 Bft) O-NO 67 0 min 0,000 mm 0,0 UV-I 0 W/m -3,2 C -2,1 C 1,6 km/h (1 Bft) 82,61 %
19.02.2019 01:33 22,2 C -2,1 C -5,0 C 1,7 C 56 % 92 % 1021,2 hPa 0,0 l/m 0,0 km/h (0 Bft) O-NO 67 0 min 0,000 mm 0,0 UV-I 0 W/m -3,2 C -2,1 C 1,6 km/h (1 Bft) 91,30 %
19.02.2019 01:32 22,2 C -2,1 C -5,0 C 1,7 C 56 % 92 % 1021,2 hPa 0,0 l/m 0,0 km/h (0 Bft) N 0 0 min 0,000 mm 0,0 UV-I 0 W/m -3,2 C -2,1 C 0,0 km/h (0 Bft) 91,30 %
19.02.2019 01:31 22,2 C -2,1 C -5,0 C 1,7 C 56 % 92 % 1021,2 hPa 0,0 l/m 0,0 km/h (0 Bft) N 0 0 min 0,000 mm 0,0 UV-I 0 W/m -3,2 C -2,1 C 0,0 km/h (0 Bft) 95,65 %
19.02.2019 01:30 22,2 C -2,1 C -5,0 C 1,7 C 56 % 92 % 1021,2 hPa 0,0 l/m 0,0 km/h (0 Bft) N 0 0 min 0,000 mm 0,0 UV-I 0 W/m -3,2 C -2,1 C 0,0 km/h (0 Bft) 91,30 %
19.02.2019 01:29 22,2 C -2,1 C -5,0 C 1,7 C 56 % 92 % 1021,3 hPa 0,0 l/m 0,0 km/h (0 Bft) N 0 0 min 0,000 mm 0,0 UV-I 0 W/m -3,2 C -2,1 C 0,0 km/h (0 Bft) 95,65 %
19.02.2019 01:28 22,2 C -2,1 C -5,0 C 1,7 C 56 % 92 % 1021,3 hPa 0,0 l/m 0,0 km/h (0 Bft) N 0 0 min 0,000 mm 0,0 UV-I 0 W/m -3,2 C -2,1 C 0,0 km/h (0 Bft) 91,30 %
19.02.2019 01:27 22,2 C -2,1 C -5,0 C 1,7 C 56 % 92 % 1021,3 hPa 0,0 l/m 0,0 km/h (0 Bft) N 0 0 min 0,000 mm 0,0 UV-I 0 W/m -3,2 C -2,1 C 0,0 km/h (0 Bft) 91,30 %
19.02.2019 01:26 22,2 C -2,1 C -5,0 C 1,7 C 56 % 92 % 1021,3 hPa 0,0 l/m 0,0 km/h (0 Bft) N 0 0 min 0,000 mm 0,0 UV-I 0 W/m -3,2 C -2,1 C 0,0 km/h (0 Bft) 91,30 %
19.02.2019 01:25 22,2 C -2,1 C -5,0 C 1,7 C 56 % 92 % 1021,3 hPa 0,0 l/m 0,0 km/h (0 Bft) N 0 0 min 0,000 mm 0,0 UV-I 0 W/m -3,2 C -2,1 C 0,0 km/h (0 Bft) 95,65 %
19.02.2019 01:24 22,2 C -2,1 C -5,0 C 1,7 C 56 % 92 % 1021,3 hPa 0,0 l/m 0,0 km/h (0 Bft) N 0 0 min 0,000 mm 0,0 UV-I 0 W/m -3,2 C -2,1 C 0,0 km/h (0 Bft) 95,65 %
19.02.2019 01:23 22,2 C -2,1 C -5,0 C 1,7 C 56 % 92 % 1021,3 hPa 0,0 l/m 0,0 km/h (0 Bft) N 0 0 min 0,000 mm 0,0 UV-I 0 W/m -3,2 C -2,1 C 0,0 km/h (0 Bft) 91,30 %
19.02.2019 01:22 22,2 C -2,1 C -5,0 C 1,7 C 56 % 92 % 1021,3 hPa 0,0 l/m 1,6 km/h (1 Bft) O-NO 67 0 min 0,000 mm 0,0 UV-I 0 W/m -3,2 C -2,1 C 3,2 km/h (1 Bft) 95,65 %
19.02.2019 01:21 22,2 C -2,1 C -5,0 C 1,7 C 56 % 92 % 1021,3 hPa 0,0 l/m 0,0 km/h (0 Bft) N 0 0 min 0,000 mm 0,0 UV-I 0 W/m -3,2 C -2,1 C 0,0 km/h (0 Bft) 91,30 %
19.02.2019 01:20 22,2 C -2,1 C -5,0 C 1,7 C 56 % 92 % 1021,3 hPa 0,0 l/m 0,0 km/h (0 Bft) N 0 0 min 0,000 mm 0,0 UV-I 0 W/m -3,2 C -2,1 C 0,0 km/h (0 Bft) 91,30 %
19.02.2019 01:19 22,2 C -2,1 C -5,0 C 1,7 C 56 % 92 % 1021,3 hPa 0,0 l/m 0,0 km/h (0 Bft) N 0 0 min 0,000 mm 0,0 UV-I 0 W/m -3,2 C -2,1 C 0,0 km/h (0 Bft) 95,65 %
19.02.2019 01:18 22,2 C -2,1 C -5,0 C 1,7 C 57 % 92 % 1021,3 hPa 0,0 l/m 0,0 km/h (0 Bft) O-NO 67 0 min 0,000 mm 0,0 UV-I 0 W/m -3,2 C -2,1 C 1,6 km/h (1 Bft) 95,65 %
19.02.2019 01:17 22,2 C -2,1 C -5,0 C 1,7 C 56 % 92 % 1021,3 hPa 0,0 l/m 0,0 km/h (0 Bft) N 0 0 min 0,000 mm 0,0 UV-I 0 W/m -3,2 C -2,1 C 0,0 km/h (0 Bft) 86,96 %
19.02.2019 01:16 22,2 C -2,1 C -5,0 C 1,7 C 56 % 92 % 1021,3 hPa 0,0 l/m 1,6 km/h (1 Bft) O-NO 67 0 min 0,000 mm 0,0 UV-I 0 W/m -3,2 C -2,1 C 3,2 km/h (1 Bft) 100,00 %
19.02.2019 01:15 22,2 C -2,1 C -5,0 C 1,7 C 56 % 92 % 1021,3 hPa 0,0 l/m 1,6 km/h (1 Bft) O-NO 67 0 min 0,000 mm 0,0 UV-I 0 W/m -3,2 C -2,1 C 3,2 km/h (1 Bft) 86,96 %
19.02.2019 01:14 22,2 C -2,1 C -5,0 C 1,7 C 56 % 92 % 1021,4 hPa 0,0 l/m 0,0 km/h (0 Bft) N 0 0 min 0,000 mm 0,0 UV-I 0 W/m -3,2 C -2,1 C 0,0 km/h (0 Bft) 91,30 %
19.02.2019 01:13 22,2 C -2,1 C -5,0 C 1,7 C 56 % 92 % 1021,4 hPa 0,0 l/m 0,0 km/h (0 Bft) N 0 0 min 0,000 mm 0,0 UV-I 0 W/m -3,2 C -2,1 C 0,0 km/h (0 Bft) 91,30 %
19.02.2019 01:12 22,2 C -2,1 C -5,0 C 1,7 C 56 % 92 % 1021,4 hPa 0,0 l/m 0,0 km/h (0 Bft) N 0 0 min 0,000 mm 0,0 UV-I 0 W/m -3,2 C -2,1 C 0,0 km/h (0 Bft) 91,30 %
19.02.2019 01:11 22,2 C -2,1 C -5,0 C 1,7 C 56 % 92 % 1021,4 hPa 0,0 l/m 0,0 km/h (0 Bft) N 0 0 min 0,000 mm 0,0 UV-I 0 W/m -3,2 C -2,1 C 0,0 km/h (0 Bft) 91,30 %
19.02.2019 01:10 22,2 C -2,1 C -5,0 C 1,7 C 56 % 92 % 1021,4 hPa 0,0 l/m 0,0 km/h (0 Bft) N 0 0 min 0,000 mm 0,0 UV-I 0 W/m -3,2 C -2,1 C 0,0 km/h (0 Bft) 86,96 %
19.02.2019 01:09 22,2 C -2,1 C -5,0 C 1,7 C 56 % 92 % 1021,4 hPa 0,0 l/m 0,0 km/h (0 Bft) O-NO 67 0 min 0,000 mm 0,0 UV-I 0 W/m -3,2 C -2,1 C 1,6 km/h (1 Bft) 91,30 %
19.02.2019 01:08 22,2 C -2,0 C -5,0 C 1,7 C 56 % 92 % 1021,4 hPa 0,0 l/m 0,0 km/h (0 Bft) N 0 0 min 0,000 mm 0,0 UV-I 0 W/m -3,1 C -2,0 C 0,0 km/h (0 Bft) 91,30 %
19.02.2019 01:07 22,2 C -2,0 C -5,0 C 1,7 C 56 % 92 % 1021,4 hPa 0,0 l/m 0,0 km/h (0 Bft) N 0 0 min 0,000 mm 0,0 UV-I 0 W/m -3,1 C -2,0 C 0,0 km/h (0 Bft) 91,30 %
19.02.2019 01:06 22,2 C -2,0 C -5,0 C 1,7 C 56 % 92 % 1021,4 hPa 0,0 l/m 0,0 km/h (0 Bft) N 0 0 min 0,000 mm 0,0 UV-I 0 W/m -3,1 C -2,0 C 0,0 km/h (0 Bft) 91,30 %
19.02.2019 01:05 22,2 C -2,0 C -5,0 C 1,7 C 56 % 92 % 1021,4 hPa 0,0 l/m 0,0 km/h (0 Bft) N 0 0 min 0,000 mm 0,0 UV-I 0 W/m -3,1 C -2,0 C 0,0 km/h (0 Bft) 86,96 %
19.02.2019 01:04 22,2 C -2,0 C -5,0 C 1,7 C 56 % 92 % 1021,4 hPa 0,0 l/m 0,0 km/h (0 Bft) N 0 0 min 0,000 mm 0,0 UV-I 0 W/m -3,1 C -2,0 C 0,0 km/h (0 Bft) 95,65 %
19.02.2019 01:03 22,2 C -2,0 C -5,0 C 1,7 C 56 % 92 % 1021,4 hPa 0,0 l/m 0,0 km/h (0 Bft) N 0 0 min 0,000 mm 0,0 UV-I 0 W/m -3,1 C -2,0 C 0,0 km/h (0 Bft) 91,30 %
19.02.2019 01:02 22,2 C -2,0 C -5,0 C 1,7 C 56 % 92 % 1021,4 hPa 0,0 l/m 0,0 km/h (0 Bft) N 0 0 min 0,000 mm 0,0 UV-I 0 W/m -3,1 C -2,0 C 0,0 km/h (0 Bft) 86,96 %
19.02.2019 01:01 22,2 C -2,0 C -5,0 C 1,7 C 56 % 92 % 1021,4 hPa 0,0 l/m 0,0 km/h (0 Bft) N 0 0 min 0,000 mm 0,0 UV-I 0 W/m -3,1 C -2,0 C 0,0 km/h (0 Bft) 86,96 %
19.02.2019 01:00 22,2 C -2,0 C -5,0 C 1,7 C 56 % 92 % 1021,4 hPa 0,0 l/m 0,0 km/h (0 Bft) N 0 0 min 0,000 mm 0,0 UV-I 0 W/m -3,1 C -2,0 C 0,0 km/h (0 Bft) 91,30 %
19.02.2019 00:59 22,2 C -2,0 C -5,0 C 1,7 C 56 % 92 % 1021,3 hPa 0,0 l/m 0,0 km/h (0 Bft) N 0 0 min 0,000 mm 0,0 UV-I 0 W/m -3,1 C -2,0 C 0,0 km/h (0 Bft) 95,65 %
19.02.2019 00:58 22,2 C -2,0 C -5,0 C 1,7 C 56 % 92 % 1021,3 hPa 0,0 l/m 0,0 km/h (0 Bft) N 0 0 min 0,000 mm 0,0 UV-I 0 W/m -3,1 C -2,0 C 0,0 km/h (0 Bft) 91,30 %
19.02.2019 00:57 22,2 C -2,0 C -5,0 C 1,7 C 56 % 92 % 1021,3 hPa 0,0 l/m 0,0 km/h (0 Bft) N 0 0 min 0,000 mm 0,0 UV-I 0 W/m -3,1 C -2,0 C 0,0 km/h (0 Bft) 95,65 %
19.02.2019 00:56 22,2 C -2,0 C -5,0 C 1,7 C 56 % 92 % 1021,3 hPa 0,0 l/m 0,0 km/h (0 Bft) N 0 0 min 0,000 mm 0,0 UV-I 0 W/m -3,1 C -2,0 C 0,0 km/h (0 Bft) 86,96 %
19.02.2019 00:55 22,2 C -2,0 C -5,0 C 1,7 C 56 % 92 % 1021,3 hPa 0,0 l/m 0,0 km/h (0 Bft) N 0 0 min 0,000 mm 0,0 UV-I 0 W/m -3,1 C -2,0 C 0,0 km/h (0 Bft) 95,65 %
19.02.2019 00:54 22,2 C -1,9 C -5,0 C 1,7 C 56 % 92 % 1021,3 hPa 0,0 l/m 0,0 km/h (0 Bft) N 0 0 min 0,000 mm 0,0 UV-I 0 W/m -3,0 C -1,9 C 0,0 km/h (0 Bft) 86,96 %
19.02.2019 00:53 22,2 C -2,0 C -4,4 C 1,7 C 56 % 92 % 1021,3 hPa 0,0 l/m 0,0 km/h (0 Bft) N 0 0 min 0,000 mm 0,0 UV-I 0 W/m -3,1 C -2,0 C 0,0 km/h (0 Bft) 86,96 %
19.02.2019 00:52 22,2 C -2,0 C -4,4 C 1,7 C 56 % 92 % 1021,3 hPa 0,0 l/m 0,0 km/h (0 Bft) N 0 0 min 0,000 mm 0,0 UV-I 0 W/m -3,1 C -2,0 C 0,0 km/h (0 Bft) 95,65 %
19.02.2019 00:51 22,2 C -1,9 C -4,4 C 1,7 C 56 % 92 % 1021,3 hPa 0,0 l/m 0,0 km/h (0 Bft) N 0 0 min 0,000 mm 0,0 UV-I 0 W/m -3,0 C -1,9 C 0,0 km/h (0 Bft) 91,30 %
19.02.2019 00:50 22,2 C -1,9 C -4,4 C 1,7 C 56 % 92 % 1021,3 hPa 0,0 l/m 0,0 km/h (0 Bft) N 0 0 min 0,000 mm 0,0 UV-I 0 W/m -3,0 C -1,9 C 0,0 km/h (0 Bft) 91,30 %
19.02.2019 00:49 22,2 C -1,9 C -5,0 C 1,7 C 56 % 92 % 1021,3 hPa 0,0 l/m 0,0 km/h (0 Bft) O-NO 67 0 min 0,000 mm 0,0 UV-I 0 W/m -3,0 C -1,9 C 3,2 km/h (1 Bft) 91,30 %
19.02.2019 00:48 22,2 C -1,9 C -5,0 C 1,7 C 56 % 92 % 1021,3 hPa 0,0 l/m 1,6 km/h (1 Bft) O-NO 67 0 min 0,000 mm 0,0 UV-I 0 W/m -3,0 C -1,9 C 3,2 km/h (1 Bft) 95,65 %
19.02.2019 00:47 22,2 C -1,9 C -5,0 C 1,7 C 56 % 92 % 1021,3 hPa 0,0 l/m 3,2 km/h (1 Bft) O-NO 67 0 min 0,000 mm 0,0 UV-I 0 W/m -3,0 C -1,9 C 4,8 km/h (1 Bft) 73,91 %
19.02.2019 00:46 22,2 C -1,9 C -5,0 C 1,7 C 56 % 92 % 1021,3 hPa 0,0 l/m 3,2 km/h (1 Bft) O-NO 67 0 min 0,000 mm 0,0 UV-I 0 W/m -3,0 C -1,9 C 4,8 km/h (1 Bft) 95,65 %
19.02.2019 00:45 22,2 C -1,9 C -5,0 C 1,7 C 56 % 92 % 1021,3 hPa 0,0 l/m 1,6 km/h (1 Bft) O-NO 67 0 min 0,000 mm 0,0 UV-I 0 W/m -3,0 C -1,9 C 4,8 km/h (1 Bft) 86,96 %
19.02.2019 00:44 22,2 C -1,9 C -5,0 C 1,7 C 56 % 92 % 1021,3 hPa 0,0 l/m 0,0 km/h (0 Bft) N 0 0 min 0,000 mm 0,0 UV-I 0 W/m -3,0 C -1,9 C 0,0 km/h (0 Bft) 91,30 %
19.02.2019 00:43 22,2 C -1,9 C -5,0 C 1,7 C 56 % 92 % 1021,3 hPa 0,0 l/m 0,0 km/h (0 Bft) N 0 0 min 0,000 mm 0,0 UV-I 0 W/m -3,0 C -1,9 C 0,0 km/h (0 Bft) 82,61 %
19.02.2019 00:42 22,2 C -1,9 C -5,0 C 1,7 C 56 % 92 % 1021,3 hPa 0,0 l/m 0,0 km/h (0 Bft) N 0 0 min 0,000 mm 0,0 UV-I 0 W/m -3,0 C -1,9 C 0,0 km/h (0 Bft) 95,65 %
19.02.2019 00:41 22,2 C -1,9 C -4,4 C 1,7 C 56 % 92 % 1021,3 hPa 0,0 l/m 0,0 km/h (0 Bft) N 0 0 min 0,000 mm 0,0 UV-I 0 W/m -3,0 C -1,9 C 0,0 km/h (0 Bft) 91,30 %
19.02.2019 00:40 22,2 C -1,9 C -5,0 C 1,7 C 56 % 92 % 1021,3 hPa 0,0 l/m 0,0 km/h (0 Bft) O-NO 67 0 min 0,000 mm 0,0 UV-I 0 W/m -3,0 C -1,9 C 1,6 km/h (1 Bft) 86,96 %
19.02.2019 00:39 22,2 C -1,9 C -4,4 C 1,7 C 56 % 92 % 1021,3 hPa 0,0 l/m 0,0 km/h (0 Bft) N 0 0 min 0,000 mm 0,0 UV-I 0 W/m -3,0 C -1,9 C 0,0 km/h (0 Bft) 95,65 %
19.02.2019 00:38 22,2 C -1,9 C -4,4 C 1,7 C 56 % 92 % 1021,3 hPa 0,0 l/m 0,0 km/h (0 Bft) N 0 0 min 0,000 mm 0,0 UV-I 0 W/m -3,0 C -1,9 C 0,0 km/h (0 Bft) 91,30 %
19.02.2019 00:37 22,2 C -1,9 C -4,4 C 1,7 C 56 % 92 % 1021,3 hPa 0,0 l/m 0,0 km/h (0 Bft) N 0 0 min 0,000 mm 0,0 UV-I 0 W/m -3,0 C -1,9 C 0,0 km/h (0 Bft) 95,65 %
19.02.2019 00:36 22,2 C -1,9 C -5,0 C 1,7 C 56 % 92 % 1021,3 hPa 0,0 l/m 1,6 km/h (1 Bft) O-NO 67 0 min 0,000 mm 0,0 UV-I 0 W/m -3,0 C -1,9 C 3,2 km/h (1 Bft) 91,30 %
19.02.2019 00:35 22,2 C -1,9 C -5,0 C 1,7 C 56 % 92 % 1021,3 hPa 0,0 l/m 3,2 km/h (1 Bft) O-NO 67 0 min 0,000 mm 0,0 UV-I 0 W/m -3,0 C -1,9 C 3,2 km/h (1 Bft) 86,96 %
19.02.2019 00:34 22,2 C -1,9 C -5,0 C 1,7 C 56 % 92 % 1021,3 hPa 0,0 l/m 3,2 km/h (1 Bft) O-NO 67 0 min 0,000 mm 0,0 UV-I 0 W/m -3,0 C -1,9 C 3,2 km/h (1 Bft) 91,30 %
19.02.2019 00:33 22,2 C -1,9 C -5,0 C 1,7 C 56 % 91 % 1021,3 hPa 0,0 l/m 1,6 km/h (1 Bft) O-NO 67 0 min 0,000 mm 0,0 UV-I 0 W/m -3,2 C -1,9 C 3,2 km/h (1 Bft) 95,65 %
19.02.2019 00:32 22,2 C -1,9 C -5,0 C 1,7 C 56 % 91 % 1021,3 hPa 0,0 l/m 1,6 km/h (1 Bft) O-NO 67 0 min 0,000 mm 0,0 UV-I 0 W/m -3,2 C -1,9 C 3,2 km/h (1 Bft) 91,30 %
19.02.2019 00:31 22,2 C -1,9 C -5,0 C 1,7 C 56 % 91 % 1021,3 hPa 0,0 l/m 1,6 km/h (1 Bft) O-NO 67 0 min 0,000 mm 0,0 UV-I 0 W/m -3,2 C -1,9 C 3,2 km/h (1 Bft) 82,61 %
19.02.2019 00:30 22,2 C -1,9 C -5,0 C 1,7 C 56 % 92 % 1021,3 hPa 0,0 l/m 3,2 km/h (1 Bft) O-NO 67 0 min 0,000 mm 0,0 UV-I 0 W/m -3,0 C -1,9 C 3,2 km/h (1 Bft) 95,65 %
19.02.2019 00:29 22,2 C -1,9 C -5,0 C 1,7 C 56 % 91 % 1021,2 hPa 0,0 l/m 0,0 km/h (0 Bft) O-NO 67 0 min 0,000 mm 0,0 UV-I 0 W/m -3,2 C -1,9 C 3,2 km/h (1 Bft) 86,96 %
19.02.2019 00:28 22,2 C -1,9 C -5,0 C 1,7 C 56 % 91 % 1021,2 hPa 0,0 l/m 0,0 km/h (0 Bft) N 0 0 min 0,000 mm 0,0 UV-I 0 W/m -3,2 C -1,9 C 0,0 km/h (0 Bft) 91,30 %
19.02.2019 00:27 22,2 C -1,9 C -5,0 C 1,7 C 56 % 91 % 1021,2 hPa 0,0 l/m 0,0 km/h (0 Bft) N 0 0 min 0,000 mm 0,0 UV-I 0 W/m -3,2 C -1,9 C 0,0 km/h (0 Bft) 91,30 %
19.02.2019 00:26 22,2 C -1,9 C -5,0 C 1,7 C 56 % 91 % 1021,2 hPa 0,0 l/m 0,0 km/h (0 Bft) N 0 0 min 0,000 mm 0,0 UV-I 0 W/m -3,2 C -1,9 C 0,0 km/h (0 Bft) 91,30 %
19.02.2019 00:25 22,2 C -1,9 C -5,0 C 1,7 C 56 % 91 % 1021,2 hPa 0,0 l/m 0,0 km/h (0 Bft) N 0 0 min 0,000 mm 0,0 UV-I 0 W/m -3,2 C -1,9 C 0,0 km/h (0 Bft) 91,30 %
19.02.2019 00:24 22,2 C -1,9 C -5,0 C 1,7 C 56 % 91 % 1021,2 hPa 0,0 l/m 0,0 km/h (0 Bft) N 0 0 min 0,000 mm 0,0 UV-I 0 W/m -3,2 C -1,9 C 0,0 km/h (0 Bft) 91,30 %
19.02.2019 00:23 22,2 C -1,9 C -5,0 C 1,7 C 56 % 91 % 1021,2 hPa 0,0 l/m 0,0 km/h (0 Bft) N 0 0 min 0,000 mm 0,0 UV-I 0 W/m -3,2 C -1,9 C 0,0 km/h (0 Bft) 86,96 %
19.02.2019 00:22 22,2 C -1,9 C -4,4 C 1,7 C 56 % 91 % 1021,2 hPa 0,0 l/m 0,0 km/h (0 Bft) N 0 0 min 0,000 mm 0,0 UV-I 0 W/m -3,2 C -1,9 C 0,0 km/h (0 Bft) 86,96 %
19.02.2019 00:21 22,2 C -1,9 C -4,4 C 1,7 C 56 % 91 % 1021,2 hPa 0,0 l/m 0,0 km/h (0 Bft) N 0 0 min 0,000 mm 0,0 UV-I 0 W/m -3,2 C -1,9 C 0,0 km/h (0 Bft) 95,65 %
19.02.2019 00:20 22,2 C -1,9 C -4,4 C 1,7 C 56 % 91 % 1021,2 hPa 0,0 l/m 0,0 km/h (0 Bft) O-NO 67 0 min 0,000 mm 0,0 UV-I 0 W/m -3,2 C -1,9 C 1,6 km/h (1 Bft) 86,96 %
19.02.2019 00:19 22,2 C -1,9 C -4,4 C 1,7 C 56 % 91 % 1021,2 hPa 0,0 l/m 0,0 km/h (0 Bft) N 0 0 min 0,000 mm 0,0 UV-I 0 W/m -3,2 C -1,9 C 0,0 km/h (0 Bft) 86,96 %
19.02.2019 00:18 22,2 C -1,9 C -4,4 C 1,7 C 56 % 91 % 1021,2 hPa 0,0 l/m 0,0 km/h (0 Bft) O-NO 67 0 min 0,000 mm 0,0 UV-I 0 W/m -3,2 C -1,9 C 1,6 km/h (1 Bft) 91,30 %
19.02.2019 00:17 22,2 C -1,9 C -4,4 C 1,7 C 56 % 91 % 1021,2 hPa 0,0 l/m 0,0 km/h (0 Bft) N 0 0 min 0,000 mm 0,0 UV-I 0 W/m -3,2 C -1,9 C 0,0 km/h (0 Bft) 95,65 %
19.02.2019 00:16 22,2 C -1,9 C -4,4 C 1,7 C 56 % 91 % 1021,2 hPa 0,0 l/m 0,0 km/h (0 Bft) O-NO 67 0 min 0,000 mm 0,0 UV-I 0 W/m -3,2 C -1,9 C 1,6 km/h (1 Bft) 86,96 %
19.02.2019 00:15 22,2 C -2,0 C -4,4 C 1,7 C 56 % 91 % 1021,2 hPa 0,0 l/m 1,6 km/h (1 Bft) O-NO 67 0 min 0,000 mm 0,0 UV-I 0 W/m -3,3 C -2,0 C 3,2 km/h (1 Bft) 91,30 %
19.02.2019 00:14 22,2 C -2,0 C -4,4 C 1,7 C 56 % 91 % 1021,1 hPa 0,0 l/m 1,6 km/h (1 Bft) O-NO 67 0 min 0,000 mm 0,0 UV-I 0 W/m -3,3 C -2,0 C 3,2 km/h (1 Bft) 91,30 %
19.02.2019 00:13 22,2 C -2,0 C -5,0 C 1,7 C 57 % 91 % 1021,1 hPa 0,0 l/m 3,2 km/h (1 Bft) O-NO 67 0 min 0,000 mm 0,0 UV-I 0 W/m -3,3 C -2,0 C 3,2 km/h (1 Bft) 91,30 %
19.02.2019 00:12 22,2 C -2,0 C -5,0 C 1,7 C 56 % 91 % 1021,1 hPa 0,0 l/m 3,2 km/h (1 Bft) O-NO 67 0 min 0,000 mm 0,0 UV-I 0 W/m -3,3 C -2,0 C 3,2 km/h (1 Bft) 95,65 %
19.02.2019 00:11 22,2 C -2,0 C -5,0 C 1,7 C 56 % 91 % 1021,1 hPa 0,0 l/m 1,6 km/h (1 Bft) O-NO 67 0 min 0,000 mm 0,0 UV-I 0 W/m -3,3 C -2,0 C 3,2 km/h (1 Bft) 91,30 %
19.02.2019 00:10 22,2 C -2,0 C -5,0 C 1,7 C 56 % 91 % 1021,1 hPa 0,0 l/m 1,6 km/h (1 Bft) O-NO 67 0 min 0,000 mm 0,0 UV-I 0 W/m -3,3 C -2,0 C 3,2 km/h (1 Bft) 91,30 %
19.02.2019 00:09 22,2 C -2,0 C -5,0 C 1,7 C 56 % 91 % 1021,1 hPa 0,0 l/m 3,2 km/h (1 Bft) O-NO 67 0 min 0,000 mm 0,0 UV-I 0 W/m -3,3 C -2,0 C 4,8 km/h (1 Bft) 95,65 %
19.02.2019 00:08 22,2 C -2,0 C -5,0 C 1,7 C 56 % 91 % 1021,1 hPa 0,0 l/m 3,2 km/h (1 Bft) O-NO 67 0 min 0,000 mm 0,0 UV-I 0 W/m -3,3 C -2,0 C 4,8 km/h (1 Bft) 95,65 %
19.02.2019 00:07 22,2 C -2,0 C -5,0 C 1,7 C 56 % 91 % 1021,1 hPa 0,0 l/m 1,6 km/h (1 Bft) O-NO 67 0 min 0,000 mm 0,0 UV-I 0 W/m -3,3 C -2,0 C 4,8 km/h (1 Bft) 78,26 %
19.02.2019 00:06 22,2 C -2,0 C -5,0 C 1,7 C 57 % 91 % 1021,1 hPa 0,0 l/m 3,2 km/h (1 Bft) O-NO 67 0 min 0,000 mm 0,0 UV-I 0 W/m -3,3 C -2,0 C 4,8 km/h (1 Bft) 100,00 %
19.02.2019 00:05 22,2 C -2,0 C -5,0 C 1,7 C 56 % 91 % 1021,1 hPa 0,0 l/m 3,2 km/h (1 Bft) O-NO 67 0 min 0,000 mm 0,0 UV-I 0 W/m -3,3 C -2,0 C 3,2 km/h (1 Bft) 95,65 %
19.02.2019 00:04 22,2 C -2,0 C -5,0 C 1,7 C 56 % 91 % 1021,1 hPa 0,0 l/m 3,2 km/h (1 Bft) O-NO 67 0 min 0,000 mm 0,0 UV-I 0 W/m -3,3 C -2,0 C 3,2 km/h (1 Bft) 95,65 %
19.02.2019 00:03 22,2 C -2,0 C -5,0 C 1,7 C 56 % 91 % 1021,1 hPa 0,0 l/m 3,2 km/h (1 Bft) O-NO 67 0 min 0,000 mm 0,0 UV-I 0 W/m -3,3 C -2,0 C 4,8 km/h (1 Bft) 100,00 %
19.02.2019 00:02 22,2 C -2,0 C -5,0 C 1,7 C 56 % 91 % 1021,1 hPa 0,0 l/m 3,2 km/h (1 Bft) O-NO 67 0 min 0,000 mm 0,0 UV-I 0 W/m -3,3 C -2,0 C 4,8 km/h (1 Bft) 91,30 %
19.02.2019 00:01 22,3 C -2,0 C -5,0 C 1,7 C 56 % 91 % 1021,1 hPa 0,0 l/m 3,2 km/h (1 Bft) O-NO 67 0 min 0,000 mm 0,0 UV-I 0 W/m -3,3 C -2,0 C 3,2 km/h (1 Bft) 78,26 %
19.02.2019 00:00 22,2 C -2,0 C -5,0 C 1,7 C 56 % 91 % 1021,1 hPa 0,0 l/m 1,6 km/h (1 Bft) O-NO 67 0 min 0,000 mm 0,0 UV-I 0 W/m -3,3 C -2,0 C 3,2 km/h (1 Bft) 95,65 %
_ Min-Zeit 02:14 03:26 02:37 00:00 00:00 00:00 00:00 - 00:16 - - - - - - 03:26 03:26 00:17 00:47
Minimum _ 22,1 C -2,8 C -5,6 C 1,7 C 56 % 91 % 1021,1 hPa - 0,0 km/h (0 Bft) - - - - - - -3,9 C -2,8 C 0,0 km/h (0 Bft) 73,91 %
_ Max-Zeit 00:01 00:16 01:59 00:00 00:06 01:49 02:00 00:00 01:36 - - 00:00 00:00 00:00 00:00 00:30 00:16 01:37 00:03
Maximum _ 22,3 C -1,9 C -3,9 C 1,7 C 57 % 93 % 1021,6 hPa 0,0 l/m 4,8 km/h
O-NO (1 Bft)
- - 0 min 0,000 mm 0,0 UV-I 0 W/m -3,0 C -1,9 C 6,4 km/h
O-NO (2 Bft)
100,00 %
Durchschnitt _ 22,2 C -2,2 C -4,9 C 1,7 C 56 % 92 % 1021,4 hPa #0,0 l/m 1,1 km/h (1 Bft) O-NO - #0 min. #0,000 mm 0,0 UV-I 0 W/m -3,3 C -2,2 C 1,9 km/h (1 Bft) 92,42 %